GFSSW_700_spd_057.txt.gz
Wind_Speed
13 14 15 16 16 17 18 18 19 19 18 18 17 16 16 14 17 20 16 10 16 17 15 17 21 21 18 12 4 2 19 23 15 6 2 10 18 11 6 3 3 7 7 28 36
14 15 15 15 16 16 17 18 18 18 18 19 19 18 17 16 16 14 11 22 21 20 15 17 21 23 21 13 11 13 17 18 11 3 8 1 7 3 11 9 7 2 15 30 38
17 17 17 17 17 17 17 18 18 18 18 19 20 20 18 18 18 13 14 20 21 19 14 16 20 22 22 15 13 16 23 17 11 8 9 11 15 12 13 10 6 1 21 31 37
21 22 21 20 20 20 19 19 19 19 18 18 20 21 21 18 12 2 5 16 19 18 18 19 25 23 23 21 12 17 22 14 11 11 11 11 13 15 12 7 1 2 10 21 31
22 22 23 24 24 23 22 22 22 21 19 19 19 20 23 22 8 18 13 8 18 21 20 20 28 25 25 21 16 24 26 9 4 15 19 8 12 2 15 13 6 2 11 19 28
25 25 25 25 25 25 25 24 24 24 22 21 20 21 23 23 15 19 17 15 15 18 20 21 24 26 19 19 22 20 27 25 24 11 26 15 15 12 15 10 7 4 11 20 25
23 23 23 23 24 24 26 26 26 26 26 24 22 24 26 13 18 23 18 14 15 15 21 18 18 26 19 20 21 24 26 26 28 24 14 24 24 23 17 9 4 5 12 19 23
23 23 23 23 23 25 25 26 25 25 26 27 26 27 28 16 19 23 18 12 16 16 18 20 17 23 22 18 22 26 25 33 21 22 18 34 31 30 19 19 10 8 10 16 20
26 26 25 26 26 28 29 28 26 24 24 25 27 28 26 24 19 16 21 18 15 19 16 18 25 22 19 26 28 30 32 27 25 22 17 35 32 29 20 18 23 16 10 13 16
27 27 27 27 28 28 29 31 27 23 19 22 27 25 20 10 8 10 20 19 18 19 18 28 24 23 29 33 37 30 25 25 27 24 30 32 19 27 20 20 30 25 25 19 17
29 28 27 25 26 28 27 28 30 27 26 23 22 24 20 16 14 13 17 26 21 22 30 28 29 45 40 36 31 30 31 26 30 30 19 32 26 22 20 31 23 27 31 31 24
33 31 28 26 25 26 26 27 28 31 47 16 22 30 25 18 24 21 13 29 32 36 30 26 46 38 35 32 31 35 35 31 26 24 27 30 25 26 29 31 15 31 28 30 32
33 35 35 28 25 25 22 21 22 26 38 21 20 15 17 34 30 26 22 25 36 37 38 41 34 35 35 34 36 36 38 34 30 25 21 17 21 28 30 26 20 36 30 20 37
34 33 39 31 24 22 20 16 18 20 16 19 13 13 14 8 37 26 26 28 34 39 39 44 38 22 38 39 36 37 37 36 34 26 14 35 15 34 24 27 27 40 35 30 40
35 34 37 32 22 19 16 14 12 8 6 12 12 10 10 5 13 9 24 31 36 35 37 49 40 42 38 42 37 40 32 35 38 33 25 25 20 35 38 36 39 48 35 30 34
35 34 33 24 23 22 15 10 7 3 6 11 18 18 12 8 6 15 17 31 31 36 40 41 39 36 43 34 34 32 31 34 36 34 23 27 31 21 47 39 44 44 34 36 36
33 33 30 25 15 14 10 6 6 6 11 18 26 22 21 21 17 21 11 22 35 32 47 40 43 42 35 36 34 34 34 20 15 16 12 32 22 21 31 26 34 44 36 43 37
34 33 30 23 11 14 12 8 5 8 16 23 24 23 21 28 25 30 30 20 23 43 27 43 38 45 40 42 41 39 43 20 11 6 12 29 23 32 29 22 27 39 29 39 41
34 33 24 9 14 22 11 6 9 16 14 22 31 24 29 27 28 29 30 23 14 8 44 30 50 20 44 39 39 38 46 37 25 18 9 21 30 32 30 28 26 30 40 38 39
41 25 17 13 14 19 11 14 13 12 15 17 17 17 25 26 25 26 25 18 26 15 6 37 43 33 36 42 44 43 35 37 34 9 11 19 30 39 32 37 31 33 34 44 42
39 22 4 11 17 9 15 16 20 16 13 14 18 19 20 23 21 23 22 38 17 20 12 12 24 50 35 46 54 40 40 44 34 28 6 5 25 36 40 34 36 37 29 41 43
39 25 3 15 9 13 9 13 15 16 14 13 14 14 15 20 18 24 26 22 36 36 28 11 16 22 52 42 37 44 45 38 32 30 31 20 27 14 21 39 38 45 35 28 41
43 31 29 14 8 15 17 13 10 12 13 12 11 12 16 11 21 21 26 24 31 30 13 19 6 10 32 39 40 43 42 51 33 31 32 18 27 26 29 20 41 42 36 36 30
39 31 34 5 7 18 22 18 12 7 17 15 17 20 23 15 17 22 27 15 22 37 12 22 18 24 20 27 33 30 44 45 43 31 30 35 36 16 6 20 34 36 39 24 40
35 32 30 23 17 19 16 17 16 16 14 8 13 20 10 17 19 20 22 19 22 23 10 20 22 21 28 29 22 32 37 45 43 44 32 29 29 25 15 17 24 31 26 28 32
35 35 29 19 19 20 13 13 13 15 18 19 14 16 17 22 20 21 21 18 18 18 14 16 17 22 21 18 17 16 14 51 48 43 40 26 34 23 21 15 21 22 26 30 28
36 34 25 25 20 19 14 14 18 19 18 15 18 17 22 19 20 21 25 22 18 29 30 22 22 22 8 9 7 11 30 13 47 40 40 43 34 29 27 26 22 25 26 28 28

GFSSW_700_spd_060.txt.gz
Wind_Speed
14 14 15 16 16 16 16 16 17 16 16 17 17 17 16 14 14 13 9 10 16 19 18 19 23 20 19 15 11 11 7 11 11 6 3 9 16 15 7 8 5 13 8 27 33
17 17 17 18 18 18 18 18 17 17 17 17 18 17 17 16 15 10 13 21 23 21 18 17 19 23 23 18 18 16 15 10 2 4 7 7 8 12 6 8 6 7 16 34 34
18 19 19 20 21 20 20 20 20 19 18 18 18 18 18 16 17 12 14 16 21 19 17 16 18 22 23 22 21 16 11 4 1 6 8 8 8 12 5 4 1 1 15 36 34
20 20 21 22 22 22 22 22 22 22 20 19 19 19 18 16 8 2 4 11 18 17 21 21 23 27 27 24 21 18 13 2 8 6 9 12 5 20 8 4 8 4 9 27 34
20 19 19 19 20 21 22 23 24 24 24 22 21 22 20 17 7 15 13 11 12 18 19 20 24 26 30 25 23 21 14 6 4 12 11 9 6 21 12 10 2 3 9 21 31
19 19 19 19 19 19 20 21 22 24 26 24 23 23 24 16 12 16 13 13 14 12 19 23 21 22 26 26 26 18 14 13 15 11 17 11 12 16 20 15 3 1 11 17 21
22 22 21 20 21 21 22 23 23 23 24 25 25 26 26 8 17 18 14 13 17 15 17 18 15 25 22 21 22 19 19 17 23 21 10 17 13 14 21 12 3 1 11 21 25
24 26 25 24 23 22 22 25 26 25 23 23 25 27 28 16 20 18 15 16 16 17 16 16 16 22 28 25 22 19 21 25 26 29 23 19 16 20 17 15 12 7 11 21 25
25 27 27 27 26 23 24 23 26 27 21 21 22 26 24 21 17 18 18 15 14 17 16 22 24 25 27 27 24 25 26 24 25 28 32 30 25 23 13 12 15 10 9 18 24
26 27 29 28 27 24 25 23 25 26 17 19 24 20 18 13 19 24 21 17 18 18 23 27 32 33 36 35 34 23 16 23 26 21 38 28 32 32 19 23 24 17 14 16 21
27 27 29 29 32 27 24 23 26 21 26 17 16 22 10 19 23 17 12 20 20 20 32 31 36 46 45 39 33 23 21 24 21 20 29 25 35 33 22 32 33 29 21 15 16
29 28 31 31 36 26 23 25 22 26 17 14 24 9 20 22 23 23 22 31 30 32 26 28 44 42 38 34 29 27 25 30 26 20 26 29 33 37 30 28 35 27 19 19 17
30 30 33 32 33 23 20 19 17 17 24 12 14 20 8 10 26 20 19 23 35 36 33 42 20 38 36 33 30 34 35 35 33 21 16 19 28 33 32 33 33 30 26 24 25
29 30 32 31 28 20 16 16 17 15 14 5 13 16 20 13 4 16 18 25 28 42 35 40 43 14 37 35 35 36 40 34 34 22 15 23 15 40 34 30 35 31 31 33 26
32 30 29 30 24 23 17 15 15 12 5 6 9 10 7 7 5 9 10 27 33 36 32 47 32 39 31 43 35 41 34 32 34 30 27 23 11 39 36 35 34 33 30 40 28
33 31 28 23 27 26 19 14 10 5 3 8 12 17 15 8 9 10 5 8 21 31 39 39 38 25 40 30 34 29 28 33 30 29 21 32 24 20 40 41 37 31 34 32 34
33 32 28 23 16 15 17 13 6 5 9 10 20 22 22 16 14 16 12 19 6 12 34 36 44 38 36 32 34 35 32 18 9 14 9 31 24 36 25 33 32 30 35 31 39
35 34 25 10 11 15 11 4 3 9 16 21 26 23 18 23 17 20 17 15 12 19 13 15 33 45 37 44 34 42 42 24 12 5 12 36 20 43 32 25 33 23 33 36 36
34 25 18 10 7 13 11 1 1 15 18 25 29 20 15 21 22 25 18 10 19 21 18 12 22 19 43 35 43 41 44 45 27 12 9 15 34 35 35 29 25 24 27 47 32
35 24 19 14 12 13 7 7 4 16 19 16 13 10 16 17 19 20 12 6 17 15 17 12 25 33 34 32 42 46 35 33 30 16 10 7 22 34 42 40 34 27 27 36 38
32 23 20 19 18 11 9 13 17 13 14 14 14 14 11 10 10 17 11 22 12 21 18 18 11 29 26 36 39 47 44 32 34 26 10 4 22 30 31 35 35 34 29 37 36
32 28 29 16 6 8 10 11 11 14 10 4 10 9 10 13 19 18 14 17 28 32 31 21 14 20 33 33 33 27 43 41 29 21 32 23 35 23 35 27 27 18 36 34 38
35 27 27 14 9 12 17 18 14 18 10 8 7 14 16 17 13 6 14 20 25 27 18 21 6 15 22 30 23 28 28 41 40 34 34 20 37 24 35 29 32 35 40 42 41
34 30 27 11 16 17 20 17 16 14 16 10 5 8 11 12 9 12 18 23 20 22 20 26 21 17 21 20 14 20 26 27 36 35 30 41 49 42 20 18 28 25 43 46 39
31 31 28 20 13 13 16 14 13 13 7 8 1 7 6 8 12 17 20 21 15 14 20 22 27 19 23 28 24 21 21 25 29 42 36 36 44 41 36 24 21 28 36 38 31
29 28 27 20 15 14 14 11 10 10 15 14 14 16 12 13 11 16 11 14 19 17 20 17 29 25 21 15 15 12 12 21 22 40 45 29 38 27 26 18 13 28 28 29 30
28 27 26 23 19 15 14 13 16 14 10 9 18 18 15 16 16 16 20 23 21 27 23 22 19 22 11 6 11 7 9 9 16 33 36 46 32 18 22 21 16 25 29 27 29

GFSSW_700_spd_063.txt.gz
Wind_Speed
17 17 18 18 18 18 17 18 18 17 17 16 14 14 13 13 12 10 2 11 18 20 19 20 21 23 21 17 15 15 9 9 3 1 3 7 8 11 7 7 7 13 13 16 27
19 19 20 21 21 21 20 20 20 19 18 18 17 15 14 13 12 8 12 16 23 21 21 19 20 24 24 21 20 18 17 10 6 5 2 4 6 7 7 3 6 13 15 22 31
20 21 21 21 21 21 22 22 22 22 21 19 18 18 16 13 12 10 13 14 20 19 19 18 19 20 23 24 23 18 11 12 5 3 3 2 8 9 6 6 3 3 11 25 33
18 18 19 20 20 20 20 21 21 22 24 22 21 19 18 13 6 4 2 3 14 17 23 24 24 24 26 25 22 19 12 11 7 1 2 10 7 7 7 5 5 4 3 20 33
18 18 19 20 20 21 21 21 21 21 22 23 23 22 19 15 4 17 14 10 7 16 20 23 23 23 26 28 24 22 16 12 3 6 10 9 12 13 16 10 3 3 8 19 28
18 19 20 21 21 21 22 22 23 23 22 22 23 24 22 14 14 16 12 13 11 10 19 22 19 16 18 28 27 18 17 12 6 6 8 14 14 12 15 14 8 3 9 21 24
21 22 24 24 25 24 23 22 24 24 23 22 21 23 24 9 16 17 13 15 16 12 11 16 17 20 21 26 26 22 19 18 13 13 10 10 13 12 12 16 10 6 12 20 27
22 23 24 25 26 25 23 22 24 24 25 20 20 21 21 17 17 18 17 17 18 19 16 11 21 20 22 20 27 29 22 20 15 13 21 14 13 16 13 19 15 8 13 20 27
24 23 25 27 27 28 25 23 20 22 24 25 20 19 16 21 23 25 20 18 19 20 20 22 24 26 22 24 25 24 20 27 22 16 23 24 21 17 20 19 16 11 10 19 26
26 26 25 29 30 30 26 22 20 21 17 16 13 10 12 11 22 25 25 23 21 23 26 31 32 35 31 34 35 23 25 26 24 19 22 28 29 24 23 23 18 16 13 18 25
31 30 26 28 30 31 28 23 19 14 12 13 17 17 11 19 16 21 25 27 27 26 32 37 39 46 42 39 38 19 21 28 26 16 22 31 35 32 29 32 26 24 20 19 20
31 30 27 28 28 30 28 24 17 13 11 9 11 15 14 16 16 11 19 29 32 31 29 32 45 39 36 35 38 36 22 30 27 19 19 29 35 30 27 32 29 23 23 22 17
33 33 26 24 27 26 22 20 19 16 18 4 8 14 19 2 12 14 18 27 31 31 32 37 22 38 36 37 39 39 35 30 25 4 13 16 33 33 35 38 36 30 26 24 23
33 32 29 23 23 22 19 18 16 14 13 3 6 9 10 4 6 12 16 22 29 32 31 34 36 7 37 40 41 42 38 31 29 14 17 16 9 31 35 37 43 35 29 31 26
35 32 27 24 24 24 19 15 11 8 4 5 8 6 9 8 7 9 8 13 27 32 23 39 30 38 23 41 42 45 34 33 29 23 19 24 15 21 32 45 47 41 34 28 24
34 33 26 22 19 19 13 7 4 4 3 5 7 13 15 7 8 13 10 11 11 27 36 27 34 24 41 28 38 36 28 32 31 25 19 27 27 22 33 33 40 37 30 28 28
33 35 25 21 19 15 14 8 2 4 6 8 15 22 22 20 16 17 13 11 5 7 18 28 36 32 28 27 33 24 29 13 8 10 11 25 22 37 20 31 38 35 26 24 24
31 28 21 16 17 17 16 5 5 3 6 14 18 15 14 13 12 16 11 8 4 3 8 12 19 29 34 33 30 37 33 18 6 4 12 33 14 36 38 24 23 30 32 26 25
27 25 19 19 15 12 9 3 2 5 10 14 17 8 6 12 9 12 8 6 10 11 5 5 12 16 32 34 28 33 40 38 29 10 6 11 20 42 32 27 30 27 31 36 34
28 23 20 18 17 11 7 2 5 9 11 12 13 9 10 16 12 11 1 3 10 10 6 6 13 22 23 27 41 36 25 28 29 15 10 4 12 28 38 37 34 29 20 23 26
27 24 20 18 10 10 11 11 13 15 15 10 6 9 13 10 8 8 5 7 12 12 18 18 8 22 22 12 27 37 40 33 27 26 12 4 15 15 31 35 37 34 27 24 22
26 20 20 13 5 4 9 14 19 22 17 11 7 4 7 9 8 8 9 8 13 17 18 12 8 15 25 29 12 13 25 39 29 19 28 25 34 29 22 22 24 36 35 30 23
28 19 24 11 8 10 12 14 15 18 20 23 16 10 4 8 6 7 11 9 12 12 10 11 5 8 12 28 23 21 21 17 35 33 33 20 30 31 32 26 25 29 31 31 22
30 25 23 17 15 12 12 10 11 10 12 12 17 21 19 9 4 7 9 6 11 13 10 11 8 15 14 11 16 23 20 15 10 18 38 47 33 33 25 30 28 28 26 30 32
28 24 23 16 15 12 12 10 11 8 8 11 8 5 10 7 11 9 10 11 7 10 10 9 11 19 30 31 30 32 27 23 21 23 20 38 45 41 36 29 26 28 32 37 48
25 23 23 16 15 10 9 12 8 11 14 15 11 11 14 21 19 19 13 10 7 12 14 15 14 15 30 30 28 28 18 24 22 21 28 33 37 32 27 27 30 35 32 28 35
25 23 21 14 15 12 12 12 10 13 8 8 15 17 12 12 17 26 21 17 16 18 19 18 16 10 22 24 15 15 15 7 12 16 23 32 37 25 27 26 29 25 24 30 36

GFSSW_700_spd_069.txt.gz
Wind_Speed
14 14 14 14 15 15 15 15 14 14 14 15 13 12 10 10 9 5 7 13 17 19 19 20 22 23 22 18 15 11 7 12 5 5 2 9 9 11 8 8 6 4 2 15 30
15 15 16 15 15 15 15 15 14 13 13 14 15 14 12 10 9 8 14 11 14 20 18 18 21 24 25 21 19 14 13 6 9 6 7 10 11 7 4 3 3 5 7 22 30
16 17 17 18 19 18 17 16 16 15 14 13 14 14 14 12 10 11 13 16 12 15 20 18 18 20 24 22 21 18 12 11 10 6 6 10 11 9 7 5 3 2 11 21 28
17 18 18 19 20 20 20 19 18 16 15 15 13 14 13 12 7 9 9 13 16 15 22 23 23 22 24 26 24 21 16 13 10 8 7 10 7 4 4 2 3 4 7 13 27
19 21 21 20 20 21 21 21 21 17 15 16 15 13 14 13 15 12 12 7 7 15 19 22 21 21 23 25 26 25 16 15 17 12 11 11 8 8 5 4 2 2 9 15 26
18 20 21 21 20 20 20 22 22 20 17 16 16 14 12 15 17 18 18 16 11 11 18 22 20 18 18 23 26 22 24 14 21 13 15 13 12 12 7 4 4 3 5 18 24
20 22 24 24 24 23 20 21 23 20 17 17 18 15 13 15 15 19 19 19 17 15 17 19 22 19 19 14 20 27 17 23 22 16 16 13 13 14 9 5 9 3 4 18 26
21 24 28 28 27 25 21 20 20 19 16 16 18 14 13 11 17 20 20 20 20 19 21 20 22 21 20 20 15 23 20 18 24 19 17 15 9 12 9 8 11 7 5 16 24
23 25 28 29 29 25 18 18 18 20 15 11 13 10 5 8 16 23 22 21 21 22 25 24 27 26 24 19 15 19 16 23 20 22 19 18 12 11 8 11 12 13 9 17 24
24 26 27 27 25 23 16 15 15 15 9 9 5 6 7 8 12 19 24 22 25 24 26 30 32 32 30 29 21 17 23 19 23 22 20 20 18 15 13 10 11 15 11 18 23
25 25 25 24 23 23 18 14 12 7 7 7 7 8 9 7 8 15 20 24 25 29 29 32 36 42 36 31 22 18 14 17 24 18 20 21 20 19 19 18 14 18 15 11 18
25 25 26 23 22 19 15 14 13 9 5 3 3 4 4 2 8 11 12 18 28 31 33 33 41 33 33 33 29 23 16 14 21 19 21 18 22 22 23 17 16 20 17 12 14
25 25 25 23 23 19 16 14 11 9 5 6 7 4 0 6 6 6 7 12 21 28 32 30 22 32 33 34 32 30 25 20 17 17 16 18 19 26 26 25 25 23 24 20 16
26 25 23 20 20 16 12 8 8 6 4 5 6 6 3 4 4 4 5 11 14 22 26 25 31 8 15 35 33 29 32 24 23 12 16 17 19 26 28 26 27 27 27 27 25
26 24 23 19 18 15 11 9 5 1 2 2 6 9 7 4 5 3 6 10 16 18 24 19 16 29 15 19 30 27 24 32 26 19 16 16 13 27 20 27 26 28 26 23 24
25 24 21 17 15 14 12 7 3 0 2 3 7 7 7 10 9 6 3 7 13 19 22 20 25 12 24 25 17 21 9 13 19 24 24 30 18 26 27 30 28 26 28 26 24
23 21 19 16 11 12 10 7 1 3 4 4 7 10 11 8 10 12 9 5 9 8 15 23 24 21 21 11 15 21 21 7 10 14 18 25 26 33 18 29 35 26 23 19 22
21 18 18 14 13 11 10 6 5 6 7 8 10 14 9 6 7 6 6 6 6 6 8 13 12 27 23 22 16 24 26 15 12 12 17 25 18 31 36 11 9 23 19 15 20
18 18 15 15 12 12 10 4 4 8 8 9 10 8 6 2 3 5 6 8 6 7 5 4 9 19 29 32 23 18 36 30 12 5 13 25 30 31 24 23 33 30 25 19 16
18 19 17 16 14 9 5 5 7 8 7 9 7 6 5 9 8 4 4 4 5 6 5 5 7 15 19 28 31 25 19 25 26 19 13 10 24 26 32 38 31 24 28 20 16
20 20 18 16 11 5 3 3 6 9 10 7 7 9 12 12 10 8 6 9 10 10 12 12 9 8 16 15 19 28 23 18 22 31 15 10 14 15 28 23 21 28 35 22 18
20 15 14 13 8 6 3 4 6 10 10 10 12 13 11 12 11 11 10 12 8 8 9 11 7 11 18 11 17 23 21 27 22 18 32 29 31 7 13 19 17 20 25 27 28
19 12 17 10 7 7 4 2 3 5 7 4 6 9 11 10 6 10 11 13 13 12 5 5 5 5 12 17 20 14 19 28 31 25 21 19 26 23 25 22 17 11 14 20 28
20 17 20 14 12 7 5 4 5 6 7 6 7 6 7 10 16 11 13 12 13 12 11 10 12 11 13 5 4 5 15 16 12 22 29 29 19 14 16 29 28 21 17 15 18
23 20 17 13 11 9 8 8 8 8 6 8 5 6 5 4 6 9 10 9 10 14 15 10 9 13 20 21 21 23 21 19 16 15 21 27 28 27 19 21 29 24 21 17 15
21 18 16 14 12 8 9 11 11 10 9 6 7 7 8 11 12 12 10 12 15 12 12 16 8 13 21 17 16 24 25 26 25 22 19 22 29 28 33 26 24 27 28 25 22
19 20 17 13 12 13 13 12 10 12 6 10 11 13 13 12 13 16 16 18 21 17 15 18 10 7 13 11 16 17 23 28 22 19 19 22 28 32 29 29 32 29 29 25 25

GFSSW_700_spd_072.txt.gz
Wind_Speed
11 11 11 11 11 11 12 11 11 11 11 12 10 10 10 9 7 7 9 12 14 18 17 18 20 22 20 18 14 9 5 7 3 5 5 8 7 12 10 7 6 4 5 13 28
12 12 13 14 14 13 12 12 12 12 11 11 12 11 11 10 9 9 12 11 9 16 17 17 19 21 21 18 15 11 6 5 6 4 6 10 8 9 5 2 2 5 6 21 30
14 14 14 15 15 14 14 13 13 13 12 12 12 11 11 11 11 13 13 14 10 12 17 16 15 16 17 17 17 13 10 6 4 4 11 9 10 10 8 4 6 3 9 23 29
15 15 15 15 16 15 15 15 15 14 13 11 12 11 11 10 8 13 14 15 15 13 18 20 20 19 18 18 18 12 12 11 7 5 6 14 10 8 8 3 2 4 11 19 28
17 17 18 19 19 18 17 17 17 16 14 13 12 11 10 11 17 11 12 12 15 18 16 19 20 19 18 18 17 21 11 13 11 9 7 10 10 7 8 5 2 2 9 19 27
17 19 19 20 21 21 20 18 17 17 16 13 12 10 11 12 16 20 16 14 10 15 18 21 20 17 14 13 19 12 20 13 12 11 9 13 9 10 10 6 4 2 7 17 25
17 20 21 22 22 21 19 16 14 15 16 14 12 11 11 12 15 22 24 22 17 16 18 20 22 20 12 11 17 18 10 18 20 18 12 12 13 13 13 5 7 5 5 18 26
18 21 22 22 21 19 17 12 11 13 15 13 11 11 10 8 15 18 24 24 24 21 22 24 23 20 15 14 8 16 19 17 19 20 16 15 17 18 13 7 8 8 5 18 28
19 21 23 22 18 17 16 11 10 12 12 8 8 5 7 5 9 17 20 22 24 25 25 25 25 20 17 14 15 15 18 22 18 22 18 18 13 16 13 9 10 9 8 15 29
19 20 20 20 17 16 16 11 9 8 6 4 5 6 7 10 7 12 19 20 23 25 26 28 25 20 20 22 23 19 24 21 25 18 23 19 13 13 13 8 10 10 13 15 28
18 18 19 18 15 15 14 8 5 6 3 1 3 2 5 7 5 7 15 16 21 22 22 25 27 33 25 24 21 14 17 23 22 16 23 23 21 14 17 14 10 11 16 15 23
18 18 20 19 18 17 15 13 10 6 5 5 3 1 1 4 3 5 7 12 20 21 20 19 31 24 20 21 22 19 16 19 17 24 19 22 23 20 21 19 12 13 17 15 22
18 17 20 19 17 16 16 13 12 9 5 8 8 5 2 3 2 4 6 9 15 21 25 22 12 24 23 23 22 24 22 18 21 20 20 20 23 23 22 21 19 17 18 19 17
18 16 17 17 15 13 11 9 8 6 5 4 4 8 4 5 4 4 7 10 11 19 23 26 25 10 26 26 23 24 23 21 18 16 24 26 23 29 27 24 24 22 24 22 20
17 16 16 14 13 10 7 5 2 3 6 5 5 8 6 6 5 4 7 9 9 11 21 22 20 27 19 20 26 26 16 21 23 22 21 20 24 24 28 28 27 24 28 25 23
16 16 13 13 12 10 7 4 1 3 3 2 2 1 1 5 7 7 4 7 12 16 17 20 21 18 26 22 17 19 17 18 18 24 25 33 25 27 27 29 27 26 27 25 23
16 12 13 11 10 11 7 2 3 7 4 2 2 1 1 3 4 8 5 3 7 12 19 18 22 21 16 22 22 19 23 16 13 19 18 34 35 30 20 26 26 26 26 26 23
13 11 11 11 9 8 7 1 9 2 2 3 3 5 2 3 5 3 4 8 8 11 11 16 19 25 23 25 23 29 26 23 18 14 18 32 26 42 32 12 21 25 23 23 20
14 12 13 14 9 7 4 8 1 2 3 4 7 5 5 2 2 3 4 6 5 9 10 9 21 15 23 20 27 22 37 30 28 14 16 28 34 24 29 35 19 17 21 25 23
14 13 11 11 8 2 2 6 2 4 5 4 4 3 5 5 4 5 5 5 3 6 5 7 11 11 14 29 29 28 23 30 32 20 19 18 25 33 32 27 32 29 22 20 20
14 11 9 9 4 3 4 4 2 6 6 2 4 6 6 8 8 9 6 7 7 6 9 7 10 10 13 20 25 28 29 25 30 30 14 15 18 22 26 24 30 22 25 25 24
9 1 9 4 2 1 3 5 3 4 5 3 3 5 6 7 9 10 10 9 5 3 6 9 8 18 19 11 19 20 24 37 29 33 34 29 24 8 12 24 16 21 24 25 24
11 7 8 7 3 5 4 1 1 3 3 2 1 2 5 6 6 8 11 11 8 9 7 6 10 14 19 22 17 17 20 22 30 34 35 24 31 14 9 12 12 12 12 14 27
13 5 9 11 9 8 7 5 3 3 3 2 3 2 4 7 9 9 10 10 10 11 16 9 14 16 20 9 3 10 14 13 24 31 28 30 19 29 24 18 17 22 20 15 20
16 13 12 7 10 8 5 4 5 3 3 2 3 1 2 3 7 11 10 13 13 15 13 12 17 16 20 19 16 17 19 19 20 25 33 32 30 23 16 13 20 26 22 18 17
16 14 13 11 8 9 7 5 4 4 3 1 2 2 6 7 8 14 12 12 12 12 16 16 18 14 19 19 19 22 22 23 25 25 25 23 24 22 25 28 22 25 22 21 20
17 18 17 18 14 9 9 7 7 8 3 1 4 7 8 9 11 13 16 16 17 13 15 15 12 14 17 14 15 22 29 29 28 28 26 29 27 21 24 22 31 31 25 23 27

GFSSW_700_spd_075.txt.gz
Wind_Speed
9 9 9 9 9 10 11 10 11 11 13 11 10 11 11 10 9 9 11 10 10 15 15 16 18 18 17 15 14 9 10 5 6 8 18 15 13 14 17 9 6 8 3 10 18
10 10 10 10 9 8 10 10 10 10 11 13 11 11 11 12 11 12 13 10 9 12 15 15 17 19 18 16 15 14 12 12 6 3 17 13 14 10 6 9 7 7 11 10 25
12 11 12 11 11 10 10 10 10 10 10 12 12 11 11 11 12 18 14 12 10 10 15 14 15 18 19 15 18 14 16 16 2 3 3 11 5 9 11 13 12 13 9 18 29
14 14 13 14 14 14 14 13 12 12 10 11 10 11 10 9 2 12 16 15 13 12 17 19 19 19 17 19 16 16 14 11 5 2 7 15 16 9 12 18 11 6 10 22 29
15 14 13 14 16 17 17 16 15 13 12 10 10 9 9 9 17 10 13 15 16 17 14 22 21 19 17 17 15 19 11 11 6 4 2 12 7 9 6 5 10 5 10 23 30
16 16 16 17 18 19 18 17 14 12 11 10 8 8 8 7 17 20 14 14 14 18 18 22 20 18 14 17 20 13 21 14 11 11 8 13 9 7 11 9 10 4 9 21 29
16 17 17 17 17 16 14 14 11 9 8 8 7 8 7 16 13 18 19 17 13 18 20 21 15 19 15 12 17 22 13 20 19 13 12 12 12 15 15 14 13 10 15 25 28
17 17 17 17 16 11 11 14 9 7 7 6 3 4 4 8 10 16 22 23 18 19 19 18 19 17 15 12 9 20 19 20 21 21 18 16 20 19 17 17 17 15 19 26 29
18 17 16 16 14 9 10 11 9 6 5 5 4 4 4 6 4 10 17 23 23 20 20 17 20 19 21 17 14 17 22 25 19 21 19 22 16 22 20 16 18 18 20 25 29
17 16 14 14 12 9 9 9 7 4 3 4 2 5 2 3 5 5 13 18 23 21 19 21 18 19 23 23 24 22 24 23 25 22 24 21 19 18 25 20 18 20 20 24 29
17 15 14 13 12 10 9 7 5 8 2 5 5 4 5 5 2 1 6 12 15 17 20 21 22 30 26 25 22 14 22 25 21 22 21 26 23 21 21 21 19 20 20 23 29
17 14 14 13 12 11 10 8 9 10 4 9 6 3 2 3 3 1 7 11 15 19 20 18 30 24 22 20 22 23 18 19 26 23 20 24 26 19 18 20 21 20 21 24 27
17 13 13 13 12 11 11 12 7 6 5 8 7 3 2 3 4 2 7 10 13 20 23 27 13 25 24 24 22 24 23 19 20 20 25 22 27 26 28 20 21 20 20 22 28
14 12 12 12 10 8 8 6 5 2 4 8 4 6 2 4 6 7 5 11 12 20 24 27 25 11 26 25 23 24 22 21 18 24 26 27 26 33 24 29 25 23 24 24 26
14 12 10 8 7 5 5 3 4 6 6 6 6 13 4 5 4 5 6 6 11 14 19 29 28 30 22 27 25 26 17 20 22 21 24 25 31 27 31 29 27 26 28 27 26
15 11 8 8 7 5 3 1 3 4 2 4 3 2 3 5 6 6 3 6 8 13 18 22 25 25 32 23 24 24 21 20 21 24 24 33 31 31 31 32 30 31 30 29 29
14 7 6 6 4 5 1 4 4 9 6 2 2 2 5 6 6 6 8 9 10 11 17 19 26 25 24 27 27 20 26 22 18 19 19 33 37 27 26 30 31 34 32 30 30
12 8 7 6 7 5 1 2 8 1 2 3 3 4 5 7 9 7 8 12 14 14 19 18 22 28 27 28 30 30 31 24 21 16 19 32 37 38 24 15 24 34 34 30 30
12 8 8 8 7 2 3 9 3 2 1 4 9 9 11 6 9 6 10 12 8 8 14 14 23 3 31 27 28 32 36 32 31 29 26 30 34 29 36 29 18 33 31 29 30
9 6 7 7 3 3 2 7 3 1 3 4 7 4 6 4 4 5 6 5 8 9 7 11 17 12 17 21 24 33 25 34 35 23 23 25 25 33 33 31 34 20 24 23 28
6 5 8 6 3 2 6 2 2 5 0 1 4 6 7 9 9 11 10 5 10 8 8 13 14 23 16 17 27 28 32 26 29 38 18 15 19 21 30 32 28 35 24 27 26
8 3 12 2 2 2 4 2 4 3 4 2 1 4 6 9 10 12 12 8 6 6 8 7 18 24 26 16 23 32 30 37 29 29 37 30 23 2 21 27 22 29 32 27 24
5 6 3 7 2 0 4 4 4 2 3 1 1 2 5 5 7 6 11 13 11 9 8 10 18 22 24 24 22 25 28 25 40 34 32 26 27 5 11 11 16 21 24 22 23
12 1 8 10 8 6 5 3 1 2 3 3 1 3 4 5 7 9 10 11 8 9 18 12 15 21 23 11 9 14 33 30 29 34 37 33 30 16 13 17 13 11 13 12 15
11 6 7 3 8 6 5 4 3 1 3 4 0 2 1 2 4 8 10 13 14 15 17 16 22 22 25 24 17 17 16 17 23 28 27 30 30 29 9 21 17 19 11 10 15
9 6 11 8 8 8 7 2 1 4 3 1 2 3 2 6 8 13 14 15 15 15 12 14 20 19 24 21 22 24 23 23 24 27 27 29 24 18 11 3 4 7 8 11 6
15 13 9 14 9 4 4 2 2 2 2 5 4 4 6 10 11 12 17 17 17 16 16 15 12 16 24 21 26 32 30 28 28 31 30 33 26 22 16 15 9 11 19 21 17

GFSSW_700_spd_078.txt.gz
Wind_Speed
11 11 11 11 11 12 11 11 11 12 12 10 11 12 11 12 11 11 10 8 7 11 14 15 18 18 15 13 18 14 12 21 7 5 14 19 19 19 21 14 11 13 7 10 18
12 12 11 11 11 11 12 11 11 11 11 11 10 12 11 12 14 14 13 10 8 8 13 13 15 17 18 17 17 15 18 20 19 10 11 10 10 4 8 19 13 9 11 11 22
11 11 11 11 11 12 13 12 12 11 11 11 10 10 10 11 12 19 14 12 10 9 13 12 9 14 17 15 17 16 16 20 22 9 12 9 13 9 16 15 10 15 15 17 25
14 13 12 12 12 12 14 14 14 13 12 11 10 9 8 8 1 9 16 14 13 12 15 18 16 18 18 19 15 19 16 16 11 10 12 6 17 22 14 19 21 18 12 28 27
17 15 14 13 14 14 15 15 15 15 11 11 10 9 7 7 13 8 7 15 15 14 13 17 20 18 18 15 16 17 17 15 15 3 6 16 13 5 11 9 18 15 17 33 25
18 17 16 15 14 15 15 13 12 10 11 10 9 8 8 6 21 16 15 11 16 16 14 18 18 16 14 16 16 17 16 18 14 9 8 6 6 7 23 10 18 11 19 33 28
19 18 17 16 16 16 12 11 11 7 6 7 8 8 9 11 13 14 15 14 14 17 18 16 16 16 16 14 19 17 20 15 21 12 11 7 9 4 9 20 14 13 21 30 32
20 19 16 16 16 14 9 8 8 4 2 3 4 5 4 7 11 11 14 17 14 14 19 11 16 15 18 15 15 15 20 23 17 20 15 11 14 16 13 17 19 18 23 32 33
20 18 16 15 14 11 7 6 5 3 2 1 4 6 1 6 3 6 11 14 15 14 17 14 18 17 15 19 17 18 22 23 19 20 20 19 14 20 26 21 16 21 24 29 30
20 17 14 13 12 9 7 6 3 1 2 6 4 4 1 3 7 4 11 12 15 13 15 16 17 20 21 22 25 18 21 22 23 19 21 21 21 19 22 18 24 20 25 28 32
19 16 12 11 11 9 8 5 4 9 5 3 3 2 4 5 2 2 4 10 15 17 17 18 20 24 22 22 22 21 21 20 20 21 24 20 22 25 26 19 26 29 24 28 31
17 14 11 10 9 9 7 4 6 12 4 11 8 4 5 4 2 1 6 9 15 16 16 19 28 20 17 20 22 23 22 20 20 21 22 22 26 27 28 21 28 34 25 26 26
15 12 11 10 9 6 6 6 3 6 9 10 6 6 2 3 5 2 7 10 10 15 19 25 16 19 22 21 23 23 23 20 19 16 20 24 21 31 25 9 23 27 23 25 31
14 13 10 9 6 3 4 7 3 7 3 10 8 6 2 3 4 3 5 10 13 15 19 24 23 16 21 26 22 25 20 22 20 19 23 23 25 35 28 26 28 21 27 28 30
16 13 9 6 3 4 9 3 2 7 5 9 8 11 7 8 3 4 3 5 10 12 13 22 25 26 24 23 24 25 19 19 22 23 23 28 26 20 30 33 37 20 32 31 30
15 12 6 5 2 2 3 4 5 3 3 5 3 2 4 4 4 4 2 4 5 10 15 19 20 26 28 24 19 22 22 21 21 24 23 29 28 28 31 36 33 18 35 34 30
14 10 5 2 5 2 2 6 4 9 6 5 3 2 4 6 5 5 6 9 8 9 13 14 22 22 24 26 28 22 22 21 19 19 17 27 30 28 21 31 32 23 34 36 34
12 10 6 4 3 1 5 1 7 5 10 3 1 1 3 2 7 10 7 10 12 15 18 18 15 20 26 28 27 31 27 26 18 13 17 29 30 34 35 18 32 22 33 37 33
10 6 5 5 5 2 5 8 2 8 5 1 5 11 11 9 6 5 7 12 7 3 7 12 18 20 16 26 27 27 35 29 33 29 27 29 27 30 29 25 22 22 35 40 42
7 3 2 6 2 5 1 6 1 4 5 5 7 6 9 2 2 4 6 2 5 6 7 10 21 17 14 15 31 31 25 31 33 21 22 26 29 30 30 32 25 26 27 36 46
14 11 8 11 5 1 6 2 3 8 3 2 3 6 6 9 8 7 7 5 5 12 9 11 16 25 19 15 20 23 33 32 25 34 16 15 23 24 36 33 34 26 21 20 36
15 4 15 3 1 2 4 1 5 5 7 1 1 5 7 8 8 8 7 5 6 3 8 9 14 20 22 19 17 22 23 30 25 23 27 32 30 19 8 30 31 25 27 21 24
12 9 9 7 7 2 2 2 3 4 3 1 1 1 2 4 5 4 7 6 6 5 8 9 7 19 20 20 22 22 25 29 30 31 34 22 34 19 8 9 22 25 20 22 16
16 1 9 11 6 3 2 2 2 5 4 3 2 3 2 1 3 3 5 9 13 9 14 14 19 21 25 18 20 17 27 29 30 34 32 33 27 7 8 8 7 20 20 16 21
11 7 7 4 7 7 5 3 3 1 4 3 2 6 3 1 2 4 5 7 9 11 11 11 20 23 29 28 23 22 21 19 27 34 33 26 29 18 9 12 16 5 20 19 14
6 4 9 5 7 5 7 4 1 3 2 3 1 2 2 3 7 11 12 11 12 12 12 11 19 19 26 28 25 26 25 25 25 21 25 28 31 11 22 9 7 7 8 9 10
12 11 8 12 8 1 4 3 2 1 3 2 2 3 4 7 10 12 14 16 15 15 15 16 14 12 18 20 26 30 29 26 25 26 25 26 22 15 15 14 12 2 1 6 6

GFSSW_700_spd_084.txt.gz
Wind_Speed
14 14 14 13 13 13 13 11 12 11 10 11 10 10 10 11 11 9 7 8 7 11 15 15 15 16 15 11 10 6 3 5 13 16 14 17 12 15 14 9 10 9 8 21 31
14 14 14 14 14 13 13 12 12 13 11 11 11 11 11 11 10 9 10 8 9 8 12 14 12 16 16 16 14 7 4 4 7 12 7 13 4 15 12 7 9 6 15 28 30
15 15 15 15 14 14 14 14 14 14 15 13 12 11 11 12 8 12 12 12 11 9 12 15 16 14 17 18 15 9 5 3 7 13 5 8 9 7 7 14 11 5 11 26 29
18 17 17 16 16 15 15 15 14 15 16 16 13 12 10 10 6 10 14 15 13 11 12 17 18 19 20 17 13 8 5 6 11 10 11 8 7 9 11 14 17 12 2 14 30
19 18 18 16 16 15 14 14 14 13 14 14 15 13 10 10 13 8 10 14 15 12 10 14 16 18 21 17 12 8 8 8 14 15 5 10 2 9 11 12 17 13 17 11 26
19 19 18 16 14 14 13 14 13 12 12 13 13 13 10 12 10 12 8 11 15 14 12 12 12 11 13 13 8 4 8 11 17 19 16 12 5 8 11 14 13 11 16 24 25
19 18 18 16 13 12 13 13 11 9 9 10 10 10 10 8 9 10 11 13 11 14 11 10 19 15 9 5 5 13 16 12 13 15 22 12 7 9 9 10 11 11 23 31 27
20 20 19 17 13 11 10 9 7 6 5 6 7 6 4 3 9 11 9 11 14 15 14 22 19 17 14 9 12 14 11 8 9 9 13 12 10 10 9 8 10 9 23 34 31
18 17 17 16 12 9 7 6 6 4 3 2 1 5 4 4 4 1 6 12 15 14 19 26 19 19 13 6 14 13 9 7 12 13 11 13 12 8 5 9 10 15 19 24 33
17 14 14 13 10 7 6 6 7 7 5 6 6 5 5 4 9 2 5 14 16 15 27 26 20 19 19 11 13 11 11 10 11 7 12 17 20 14 10 20 15 9 23 22 31
17 14 11 9 9 7 6 6 7 8 9 9 9 9 7 1 4 10 5 15 14 18 29 25 21 18 18 16 14 16 15 18 14 8 15 20 28 24 19 17 24 13 20 20 33
17 14 10 6 6 6 6 6 8 11 9 15 9 9 6 3 3 6 6 17 16 17 22 16 17 16 11 13 12 11 11 15 16 9 15 20 30 31 25 20 22 19 14 19 22
15 13 10 6 4 4 6 4 3 5 6 12 8 8 11 8 4 1 11 11 14 10 11 14 6 8 12 10 12 14 18 15 18 17 18 5 20 28 27 22 22 21 19 17 23
14 11 9 4 4 7 8 8 1 1 2 7 14 7 10 6 9 1 11 8 9 7 7 8 11 9 10 14 11 18 14 16 17 15 11 3 5 28 34 31 29 29 28 23 30
13 10 7 1 5 6 6 4 6 8 2 9 11 8 10 12 7 4 2 13 13 13 4 7 9 8 14 17 12 18 11 15 17 16 15 4 4 3 31 36 37 34 24 26 18
12 7 5 0 2 3 4 6 10 3 3 7 4 4 9 9 8 5 10 6 7 11 9 9 10 8 6 12 15 16 13 17 17 14 9 1 5 6 17 28 36 35 29 25 20
10 5 2 2 2 3 4 11 9 5 7 8 8 4 9 11 10 2 3 5 2 5 7 4 6 7 9 13 12 11 10 2 4 2 6 15 12 5 12 14 23 31 33 30 26
9 6 4 3 5 5 9 8 10 9 15 13 8 7 6 13 10 9 6 3 4 3 3 2 1 2 3 3 7 11 8 7 5 3 4 12 5 10 17 19 22 19 20 31 28
16 15 10 5 7 11 10 12 8 10 9 9 9 9 4 1 7 7 10 14 6 2 2 2 7 9 3 4 2 8 12 12 14 16 5 7 18 18 3 17 26 28 24 24 32
17 18 16 17 15 17 15 17 10 7 5 4 3 9 6 7 6 6 4 6 7 2 1 2 6 12 8 2 5 9 4 7 11 5 3 4 12 13 23 18 17 27 31 26 28
17 25 20 13 10 13 15 12 9 6 5 2 1 4 6 7 8 9 5 5 3 6 5 3 7 15 13 5 18 13 16 9 6 6 7 2 3 15 16 21 22 18 28 37 31
20 17 11 12 12 7 5 2 1 6 1 3 4 4 6 8 9 6 7 6 11 11 7 7 8 16 21 17 12 1 11 18 8 6 5 3 8 15 18 25 19 19 22 36 35
14 11 6 1 15 14 10 9 7 10 1 2 4 3 4 10 6 9 5 10 14 15 10 10 6 9 11 5 6 4 12 15 9 3 7 2 1 18 15 16 11 7 22 31 40
4 3 5 2 10 6 6 8 7 7 6 2 5 5 9 10 9 8 10 10 9 13 12 9 6 3 3 9 16 24 22 16 13 6 20 7 26 19 18 18 14 18 15 32 43
7 10 7 5 3 2 3 0 2 2 6 2 6 8 7 10 12 8 6 7 4 5 7 9 6 7 9 11 17 21 23 22 16 13 10 21 23 10 15 18 16 12 17 24 26
5 6 9 9 4 6 7 6 4 3 2 3 7 7 5 3 4 4 9 8 11 8 6 5 5 9 13 12 13 20 20 19 18 16 17 11 2 8 8 8 12 12 15 8 22
5 6 5 7 6 4 6 3 1 5 6 2 2 8 8 7 8 9 10 8 3 5 6 13 9 10 8 15 19 8 10 13 9 9 9 4 4 5 11 14 14 14 14 16 4

GFSSW_700_spd_087.txt.gz
Wind_Speed
16 16 15 15 15 14 14 12 10 9 10 10 9 10 11 11 11 10 9 10 7 11 16 17 15 17 16 14 12 8 2 6 9 11 6 17 12 19 15 12 10 11 13 25 31
16 16 16 16 16 15 15 13 13 11 10 11 10 10 10 11 11 11 11 10 8 8 12 14 15 17 17 15 14 8 5 5 11 10 9 6 17 8 14 17 14 5 20 27 30
18 17 17 16 17 17 16 15 14 14 13 11 12 11 10 9 11 12 12 12 10 10 12 18 18 18 20 19 14 8 7 3 5 11 11 3 10 4 9 12 11 2 3 27 31
18 19 18 17 16 16 17 16 15 14 14 13 12 12 10 8 6 10 12 13 12 11 12 17 19 22 22 20 13 10 6 1 4 4 5 8 6 1 9 8 8 9 8 12 26
19 18 18 17 16 16 15 15 15 15 14 13 12 11 11 9 10 8 10 13 14 12 11 13 16 17 22 17 16 11 4 3 7 10 6 6 9 6 10 8 10 13 11 13 26
19 19 19 17 16 15 14 14 14 15 14 13 11 9 10 8 9 12 8 11 13 14 12 10 12 12 21 21 19 8 4 7 11 13 10 8 2 5 9 11 18 11 10 12 23
19 19 19 18 16 15 15 14 13 13 12 11 9 7 8 11 12 13 14 11 13 15 11 12 19 18 22 18 11 4 6 6 7 8 12 6 0 2 6 17 15 14 11 17 21
17 18 19 18 14 13 14 13 11 9 9 7 6 4 6 7 10 9 11 13 13 16 17 20 21 20 19 12 9 3 5 3 3 3 10 10 6 8 7 10 17 16 15 19 20
13 13 15 16 13 11 12 11 9 8 7 4 3 6 8 6 2 4 8 16 17 20 22 27 24 20 16 12 10 4 7 5 1 4 5 7 8 7 8 10 16 15 15 24 26
14 13 11 12 10 10 10 9 9 9 8 7 7 8 10 7 6 3 10 18 18 23 28 30 25 22 19 14 10 6 9 5 5 9 7 13 15 14 11 11 11 14 16 22 25
16 14 12 10 8 8 7 8 9 10 10 9 7 10 11 10 9 7 10 18 18 19 29 29 25 25 22 17 15 14 12 10 6 2 11 8 13 21 20 12 16 19 21 22 24
16 14 12 9 7 7 8 11 11 12 11 11 11 10 8 6 8 5 12 15 17 17 22 25 24 21 19 20 13 13 14 10 5 3 15 11 15 17 27 19 14 19 19 21 25
14 12 10 8 6 9 11 12 11 10 6 11 10 10 9 8 5 3 15 17 14 19 22 20 13 19 15 12 14 13 14 9 7 12 10 9 6 23 30 23 19 22 19 23 25
14 10 9 7 7 9 9 9 5 4 5 9 14 11 13 10 11 13 10 10 12 16 14 13 11 13 13 14 12 13 12 7 7 8 6 3 1 10 36 28 26 29 25 28 29
12 8 7 5 6 3 4 4 5 9 4 11 13 12 7 8 8 6 6 12 12 11 10 8 9 9 9 11 8 11 3 8 11 9 4 6 5 3 26 34 29 29 29 31 32
10 5 5 1 1 0 1 4 8 2 4 6 8 9 11 9 10 8 7 12 15 9 6 9 5 5 5 8 9 10 11 11 9 7 2 6 4 2 6 11 26 31 34 33 35
7 5 3 4 3 2 8 9 4 6 5 6 7 6 14 11 10 7 6 9 8 8 7 8 7 8 10 12 9 9 9 1 2 3 5 4 2 4 7 10 12 10 27 33 31
9 8 5 6 7 9 9 8 11 8 10 14 10 9 9 11 12 12 10 8 6 4 5 5 5 7 5 9 10 10 9 6 5 4 4 6 8 3 6 7 10 15 19 32 32
10 10 10 14 9 7 8 14 9 9 11 9 11 10 9 9 11 12 7 7 6 3 2 3 5 6 10 5 9 8 6 5 3 4 3 1 2 8 8 9 10 10 17 19 20
17 19 17 14 10 8 6 14 8 10 6 5 5 5 7 10 10 9 6 5 6 4 3 0 1 3 7 5 8 7 4 4 5 4 3 3 6 14 11 11 15 15 11 21 20
15 14 11 11 9 6 9 9 5 5 7 4 2 4 7 7 7 7 7 8 3 2 2 1 3 4 6 11 12 4 5 4 5 2 5 3 5 11 17 23 23 16 16 15 22
3 8 9 4 6 8 6 4 1 4 4 2 3 5 7 7 8 7 7 4 2 2 2 3 4 6 9 7 5 5 13 9 3 2 4 3 6 13 17 20 27 24 18 19 24
6 5 4 4 2 6 8 2 3 6 3 3 5 3 8 10 6 9 8 9 7 6 4 7 5 2 8 13 9 4 9 9 6 6 8 2 2 8 10 15 19 20 15 15 18
5 4 3 2 3 3 3 3 5 6 7 3 5 6 10 8 11 15 14 9 8 9 9 11 4 3 6 1 7 10 12 7 5 4 1 7 9 6 6 9 11 15 12 9 15
4 3 5 3 3 1 4 1 4 3 4 2 3 7 9 10 16 13 10 8 5 8 11 5 6 5 5 5 6 7 8 6 3 2 4 2 5 7 6 5 9 8 7 9 15
6 3 3 4 4 3 5 5 3 0 4 5 5 8 8 12 8 5 4 2 2 5 9 8 2 3 5 4 9 9 11 5 4 6 11 5 7 7 2 2 4 4 6 9 7
8 6 5 4 6 3 3 1 1 3 6 4 4 5 6 6 8 8 8 6 1 1 2 1 3 5 2 8 6 5 9 6 1 5 11 12 10 8 7 9 11 13 11 11 11

GFSSW_700_spd_093.txt.gz
Wind_Speed
15 14 13 11 12 13 13 10 8 10 10 10 10 10 9 8 9 10 9 9 8 12 17 17 17 17 14 13 9 10 12 12 8 6 6 19 16 9 14 9 9 9 8 27 27
15 15 15 15 15 13 12 12 11 9 10 11 10 10 10 9 10 10 11 10 8 9 13 14 15 16 17 16 12 10 12 13 14 11 8 18 20 23 10 11 10 7 18 31 27
16 15 14 14 14 15 14 12 12 11 11 11 10 10 9 10 9 11 12 13 11 10 15 16 17 16 18 16 12 10 10 10 13 14 15 4 19 5 17 15 8 9 21 32 25
18 17 16 15 14 14 14 14 12 12 11 11 10 9 9 10 7 11 13 15 14 12 15 19 19 19 19 18 13 14 10 7 8 9 9 7 18 11 15 13 8 13 21 25 23
18 18 17 16 15 15 13 13 13 13 11 10 9 8 8 11 11 8 13 16 16 13 10 12 16 19 21 19 16 12 10 4 3 5 4 6 10 15 11 13 9 11 26 25 22
17 17 17 17 16 16 14 13 12 12 12 10 9 8 9 11 12 11 14 17 18 15 12 15 15 16 20 19 15 12 9 3 1 1 2 3 6 18 10 13 9 11 23 24 22
15 16 16 16 16 16 13 12 11 11 11 10 8 9 10 13 14 14 13 17 21 19 14 16 18 19 20 16 15 11 6 4 3 3 5 5 4 11 13 12 12 13 20 24 25
16 16 15 15 16 15 14 11 11 9 9 8 8 9 11 13 14 15 14 14 18 22 21 18 18 19 20 14 16 10 8 5 3 6 9 9 4 7 12 11 15 13 16 24 27
18 17 15 14 15 14 13 11 8 7 6 6 7 11 13 16 14 16 18 16 18 23 24 24 22 21 22 16 15 12 9 6 4 9 12 10 4 10 8 8 18 10 12 20 26
18 17 16 13 13 12 10 10 6 4 6 7 11 13 15 16 13 16 18 19 20 26 24 25 25 24 23 19 16 13 11 7 7 11 10 10 4 1 6 8 13 10 12 18 27
16 14 14 12 12 9 7 7 5 5 8 10 15 10 16 14 13 16 16 20 21 25 27 28 26 25 22 16 15 15 13 11 11 11 8 6 7 6 9 8 11 8 12 18 23
16 13 12 10 11 9 5 3 3 4 8 10 15 17 16 15 15 18 17 16 21 25 26 27 20 23 18 15 14 16 14 10 8 7 3 3 4 5 11 12 9 8 12 16 22
15 13 10 7 7 6 4 1 2 4 5 12 15 18 16 11 8 13 17 11 15 21 24 23 18 20 15 15 18 16 13 13 8 5 3 4 3 5 8 13 12 11 10 15 22
14 12 8 6 3 1 1 2 2 6 6 11 17 13 11 13 10 10 16 10 14 15 16 15 11 20 16 15 15 14 16 13 10 6 6 7 4 4 8 15 17 16 14 13 20
13 9 7 3 3 3 1 2 4 8 3 11 13 12 13 10 14 17 18 11 13 18 14 10 18 20 17 16 14 9 12 13 9 7 5 6 3 7 1 10 18 19 15 16 14
13 9 7 7 5 2 1 5 9 2 4 6 11 14 13 16 14 19 13 12 14 16 13 9 21 13 15 17 13 12 13 11 10 9 8 6 4 7 5 2 10 18 19 17 18
12 8 9 7 5 7 11 9 5 5 5 7 11 13 14 18 10 12 12 15 11 17 16 12 14 16 16 16 18 17 12 8 7 7 6 11 6 4 6 7 4 4 14 23 22
12 9 8 7 9 7 6 6 8 9 9 9 12 14 12 15 11 13 15 15 12 12 17 10 8 11 15 18 14 19 18 10 11 9 9 13 9 5 7 7 8 4 3 11 21
12 11 10 9 7 5 0 5 5 6 8 8 14 15 14 14 12 12 16 14 10 13 8 7 6 11 10 16 17 18 17 13 6 9 14 7 8 9 3 4 5 5 2 2 10
9 10 7 6 7 6 4 13 8 9 8 7 6 9 12 13 13 11 7 9 9 10 8 10 8 8 7 12 16 17 18 11 7 9 10 5 6 3 4 7 11 9 9 7 3
6 6 6 5 4 4 5 10 6 6 5 4 7 9 12 13 12 11 8 8 7 7 7 11 7 5 8 5 11 13 14 10 14 5 7 7 5 1 3 4 2 7 8 8 5
5 3 2 4 6 3 5 4 3 2 1 4 5 8 8 10 10 10 11 8 9 7 6 5 5 5 11 8 7 9 12 14 12 7 6 5 6 5 3 3 4 3 2 6 2
4 3 4 3 3 7 8 5 5 4 2 4 5 6 6 8 5 10 12 10 10 9 9 7 6 6 3 3 6 5 5 10 10 15 10 10 8 12 7 5 4 4 1 2 4
3 4 4 4 4 5 6 4 1 2 2 3 6 6 6 6 6 11 16 11 10 8 7 7 9 7 4 4 7 9 9 8 9 6 10 6 18 18 14 7 6 4 3 2 2
3 3 4 3 4 3 4 3 2 2 3 4 4 5 7 7 7 12 12 12 8 5 3 3 5 7 9 10 12 12 13 10 9 9 4 15 20 21 16 13 8 5 5 4 2
3 3 5 4 2 3 2 2 3 5 6 6 6 6 4 8 6 13 11 6 4 3 3 4 7 9 7 7 7 9 11 14 12 12 11 17 20 18 15 15 11 7 6 4 4
4 4 3 3 2 3 3 2 3 6 5 5 5 6 7 7 8 9 7 6 5 4 3 5 11 10 6 6 4 5 11 13 14 16 14 14 17 19 18 15 12 9 7 6 6

GFSSW_700_spd_096.txt.gz
Wind_Speed
13 12 12 12 12 12 10 8 9 10 12 10 9 9 9 9 10 12 12 11 10 13 17 17 17 17 14 12 9 7 2 2 1 2 10 19 15 17 14 13 12 12 11 23 24
13 12 11 11 11 12 12 12 9 10 11 11 9 9 10 10 11 12 13 11 10 12 14 15 16 17 16 13 11 5 1 4 5 3 10 21 21 11 14 11 10 11 14 28 25
14 14 13 11 11 11 11 10 11 11 11 11 11 9 10 11 10 14 14 14 12 13 17 16 17 17 15 14 11 5 5 6 12 13 15 17 14 17 10 10 11 9 19 29 23
13 13 13 13 11 11 11 10 10 11 11 11 11 10 10 11 5 14 16 16 15 14 18 20 20 19 13 13 12 7 8 5 8 11 6 5 15 17 14 13 5 12 24 25 22
13 12 12 13 12 12 11 10 9 10 11 10 10 10 10 12 14 12 17 18 18 15 15 19 20 15 13 13 14 9 6 4 6 7 8 11 14 19 15 9 6 16 28 25 21
14 12 11 11 13 11 12 11 10 9 10 10 10 10 11 13 14 12 18 20 19 16 15 19 20 16 13 14 13 11 7 4 5 6 6 8 14 14 13 11 6 18 28 27 21
13 13 12 12 11 10 11 11 9 9 8 9 10 10 12 17 16 14 18 22 21 18 16 21 21 18 13 14 14 10 6 5 6 7 6 8 12 15 11 10 8 20 26 25 23
14 13 13 12 11 9 9 10 8 8 7 8 10 11 15 16 17 16 16 22 25 22 21 21 22 14 14 14 19 11 9 10 5 9 7 9 11 15 13 14 10 19 26 25 23
14 13 12 11 10 8 6 7 6 5 6 9 11 12 13 17 19 20 18 19 24 25 23 24 23 14 13 15 17 16 15 10 6 11 8 8 11 15 16 15 11 15 23 25 24
14 12 10 10 9 7 4 3 2 3 8 10 13 13 14 17 20 21 21 20 21 25 23 24 18 14 17 20 23 21 12 11 9 12 10 7 10 12 9 11 16 14 17 23 27
15 11 10 9 7 5 3 1 3 5 10 12 15 11 18 18 17 20 19 19 19 21 17 21 17 22 20 20 10 17 14 12 10 11 11 9 6 6 7 9 11 16 15 18 24
14 11 8 7 6 3 1 5 5 8 9 9 17 15 19 18 14 17 19 13 17 20 17 19 20 18 19 18 14 17 16 14 10 12 9 6 6 6 7 9 10 10 16 20 21
13 11 8 6 3 1 3 5 6 8 9 10 15 16 13 14 12 16 17 11 16 19 20 18 15 19 19 17 18 18 17 14 10 9 7 8 7 5 8 9 10 8 9 16 20
12 10 8 6 3 2 3 5 8 11 8 9 13 14 14 12 10 14 16 10 15 17 17 15 12 20 18 18 19 19 15 13 10 12 13 16 4 7 6 8 9 11 11 14 20
14 11 9 6 4 2 2 5 10 14 5 9 13 16 13 11 13 14 17 12 12 15 16 13 17 20 18 17 18 11 16 13 12 13 7 17 16 5 11 10 5 5 11 11 15
13 11 10 7 4 1 2 7 12 3 5 8 9 13 14 12 11 15 15 10 12 13 14 10 15 17 17 16 16 10 14 14 13 14 15 15 16 8 5 4 6 5 8 10 13
13 10 9 7 5 6 10 9 3 3 8 9 10 15 14 13 13 15 12 12 12 17 18 11 16 13 15 16 16 15 20 17 14 12 11 15 11 9 6 6 6 10 16 17 16
16 11 10 8 6 4 4 3 1 5 4 5 9 14 14 13 11 11 12 12 9 11 20 17 15 14 16 16 18 23 24 17 12 13 15 10 9 8 7 8 10 9 13 20 20
12 11 9 7 5 4 2 1 3 3 2 5 12 13 11 12 10 10 11 9 10 14 8 15 7 12 18 22 16 24 23 13 8 11 14 19 11 11 7 6 11 10 8 9 16
6 6 5 2 2 6 3 6 3 6 10 9 11 9 15 12 11 10 7 9 6 13 10 9 10 8 11 19 19 14 19 16 15 13 14 15 17 12 7 4 8 9 8 7 7
5 2 3 1 1 2 4 6 5 5 8 4 5 8 11 10 10 7 5 9 12 10 11 8 8 8 13 7 10 16 15 17 14 10 15 10 10 9 9 10 10 11 7 7 7
1 2 4 3 2 4 5 5 2 2 5 5 7 9 9 12 7 7 7 11 10 10 6 11 5 9 8 8 15 18 11 16 19 16 16 9 9 11 12 11 11 7 8 7 6
1 1 1 4 2 5 6 5 5 3 5 6 5 9 12 9 5 9 10 12 13 11 10 9 6 11 8 6 6 7 7 11 15 12 23 16 11 18 14 11 10 9 6 4 5
2 0 2 3 6 7 5 3 1 1 4 7 8 8 6 6 7 10 11 12 12 12 11 11 5 7 4 3 7 7 5 8 13 21 19 19 16 21 19 15 13 11 8 6 5
1 2 5 5 5 4 3 4 3 2 2 5 3 6 6 6 9 9 9 11 12 12 12 7 6 5 2 5 6 5 6 6 8 12 15 13 19 24 21 17 14 13 9 6 4
0 3 4 5 4 5 4 2 4 5 6 6 7 5 5 9 5 11 12 8 7 10 10 10 7 7 6 10 10 9 10 10 9 8 8 18 20 24 23 20 17 14 13 11 9
2 3 5 4 3 3 3 4 4 5 4 6 7 7 8 8 10 11 10 8 7 6 5 5 9 10 12 6 6 11 17 14 14 13 15 15 18 27 25 21 20 18 15 13 11

GFSSW_700_spd_102.txt.gz
Wind_Speed
13 14 14 13 11 11 11 12 12 12 12 11 12 12 12 13 14 15 13 11 10 13 16 17 18 15 10 12 12 11 4 3 6 11 12 20 23 23 12 16 11 7 21 27 29
13 14 14 13 13 11 10 11 12 13 12 11 12 13 12 12 14 15 14 10 11 13 17 17 17 14 12 12 11 16 4 3 3 4 10 19 19 22 12 16 13 22 26 29 29
13 13 13 14 13 13 11 10 11 12 13 12 12 13 12 11 11 15 14 14 13 13 17 15 12 13 12 9 9 16 5 7 10 7 13 22 18 23 19 15 12 29 29 29 27
12 12 12 12 13 13 12 11 11 11 12 13 12 13 12 10 3 13 14 15 15 15 19 16 14 15 13 13 11 14 5 5 9 11 19 19 17 21 18 18 19 21 27 28 25
12 11 11 10 11 11 12 12 12 11 11 12 12 13 13 13 9 6 14 17 17 16 19 18 16 15 13 11 10 12 5 4 5 9 14 16 17 17 17 24 22 18 27 26 24
13 12 11 10 10 10 10 11 11 11 10 11 12 13 14 11 18 14 10 17 17 15 19 17 15 15 10 11 13 10 6 5 9 6 4 13 18 18 19 17 19 26 27 25 23
11 9 10 10 10 9 9 10 10 11 10 10 12 13 15 16 16 14 11 16 17 16 14 16 12 14 12 10 14 14 11 7 10 12 15 9 16 19 19 19 18 27 28 24 23
12 10 10 9 9 9 9 8 8 9 9 9 10 12 12 20 14 13 12 17 19 17 12 13 14 16 15 9 12 17 12 15 19 14 13 6 15 21 28 18 23 29 27 25 24
11 10 9 8 8 6 6 6 5 7 8 8 9 9 5 15 14 11 11 12 17 15 15 12 16 14 13 14 14 18 21 21 17 14 17 12 16 21 26 29 27 30 27 25 24
11 9 9 7 6 3 1 1 2 2 6 7 5 9 10 9 12 13 15 16 16 14 15 16 13 14 17 18 23 23 23 21 18 25 13 13 12 20 22 30 31 29 27 26 26
11 9 6 5 3 0 5 10 7 11 4 12 8 5 7 9 15 13 14 14 15 15 16 14 15 20 21 22 21 22 16 16 9 23 17 8 9 21 27 17 28 30 28 26 25
12 9 6 4 3 3 10 7 6 6 5 6 8 1 3 15 14 14 16 16 19 18 16 13 21 17 18 18 25 23 15 13 11 23 11 9 18 26 26 25 33 32 31 28 27
14 11 8 4 3 3 6 4 3 3 5 10 12 13 12 14 12 15 18 17 15 18 20 20 13 18 18 20 24 23 23 17 24 16 13 13 20 15 23 30 36 31 28 33 31
13 13 12 7 4 10 10 7 4 6 5 14 11 11 14 13 13 15 18 18 12 17 19 20 15 18 18 20 22 21 16 22 29 15 13 14 9 17 23 34 27 31 32 28 33
10 11 10 8 7 9 9 5 7 2 6 10 12 7 11 17 10 15 18 19 14 15 20 22 18 19 20 21 19 25 14 14 22 14 28 19 8 14 20 18 17 23 23 26 31
8 8 8 5 8 9 7 4 2 6 1 7 12 10 13 15 13 13 16 19 14 16 20 19 17 15 20 19 15 21 14 14 10 15 17 27 19 14 20 5 12 11 14 22 27
7 5 6 7 5 3 3 2 7 8 1 7 13 10 17 16 14 15 18 18 18 16 22 19 21 18 19 20 19 22 14 14 12 12 13 27 14 9 25 10 3 23 24 22 22
6 3 3 5 8 3 1 3 6 12 5 6 11 12 16 17 15 14 16 18 19 18 18 21 20 22 21 20 17 21 24 18 14 12 15 21 13 13 21 27 9 17 23 22 19
6 0 7 4 3 2 2 1 9 2 10 4 9 11 16 11 6 16 19 16 20 15 3 22 20 22 15 20 10 24 26 24 21 24 19 14 19 16 12 14 27 27 23 21 22
7 3 6 9 6 4 8 14 9 4 4 5 10 10 9 11 14 14 14 6 1 5 4 10 14 23 18 16 15 15 17 27 30 14 14 15 20 19 21 16 27 30 27 26 23
8 4 8 4 2 6 6 1 1 3 1 3 3 4 7 12 12 10 4 6 9 1 8 9 12 14 17 20 20 16 15 21 26 27 10 11 7 23 19 16 17 21 21 24 28
6 7 8 4 4 5 12 1 4 2 2 2 5 6 5 5 6 3 13 2 9 7 5 8 5 16 18 14 20 23 21 21 24 24 20 7 3 13 16 16 16 16 18 17 18
7 3 7 5 7 8 3 2 2 0 3 1 1 2 2 5 4 1 3 9 3 2 5 4 11 6 10 10 15 14 18 18 20 25 25 8 9 19 23 21 21 19 13 14 15
9 4 3 2 3 4 2 1 2 5 3 3 3 3 4 6 7 7 2 1 5 5 6 8 11 9 6 10 8 23 21 16 17 18 20 7 25 26 23 20 17 19 18 16 13
4 3 3 2 3 1 2 1 2 2 3 3 5 7 9 7 8 8 10 4 7 8 5 4 10 9 5 9 7 7 27 21 15 19 17 17 22 22 17 18 17 16 15 15 14
2 1 3 3 4 2 2 1 1 1 2 3 5 6 8 9 4 5 6 7 7 7 6 6 11 9 10 7 8 5 2 7 12 16 7 12 20 18 15 15 14 16 16 15 13
3 1 3 7 1 2 4 3 3 2 0 2 1 1 5 4 2 2 5 3 5 8 5 9 9 13 15 14 14 14 13 12 12 11 7 13 15 24 21 15 15 16 15 16 15

GFSSW_700_spd_105.txt.gz
Wind_Speed
13 12 13 13 12 12 12 13 12 11 10 10 13 12 12 13 14 14 11 12 12 13 17 18 17 13 11 6 6 14 12 14 5 12 22 21 20 23 20 29 10 7 21 33 29
11 11 10 11 12 12 11 11 12 12 12 10 11 13 12 13 14 11 14 11 12 12 18 18 17 14 10 10 4 11 8 15 3 7 9 22 20 19 20 18 16 22 24 32 27
13 12 10 9 10 11 11 11 11 11 12 11 10 12 13 12 13 12 12 13 13 14 17 17 17 11 6 6 7 14 11 1 6 5 13 23 25 17 17 13 12 19 30 35 24
13 12 11 10 9 9 10 11 11 11 11 11 11 11 13 12 10 13 13 13 14 15 19 23 20 12 8 7 8 15 13 4 6 5 20 26 28 21 19 19 24 10 31 36 23
14 13 12 10 9 8 9 11 12 11 10 10 12 11 13 13 16 5 13 16 16 14 18 22 21 12 9 9 5 17 11 9 10 9 17 20 19 21 15 23 26 15 29 32 27
14 12 11 12 11 9 8 9 10 11 11 10 11 12 13 13 18 14 8 13 15 13 17 23 20 12 9 8 12 13 14 15 7 6 6 11 18 21 22 29 22 16 29 30 24
13 12 11 10 10 10 9 8 9 10 10 10 10 12 13 14 17 12 11 12 16 13 16 19 14 11 10 11 10 12 6 11 11 3 8 14 18 18 23 27 28 25 29 30 25
13 11 11 10 10 9 8 7 6 8 9 9 9 10 11 18 17 12 13 13 17 16 18 15 16 13 19 16 12 12 15 18 19 13 7 8 21 24 26 31 30 30 28 28 28
12 10 10 10 8 7 4 3 2 5 6 8 8 9 10 14 15 11 12 13 18 19 18 9 11 16 21 15 13 15 22 18 19 13 8 8 17 25 30 22 34 33 29 29 26
13 10 8 7 5 4 3 6 9 4 3 6 6 5 3 5 10 10 12 6 16 18 15 15 18 18 23 17 21 15 22 16 21 27 16 16 13 18 34 23 35 35 31 28 28
13 9 6 5 3 2 8 8 10 10 3 5 8 7 3 7 8 11 18 18 13 11 15 16 16 21 26 20 19 17 19 16 7 23 23 14 13 17 34 33 34 34 30 28 28
13 9 6 3 2 6 8 4 4 2 6 6 8 8 6 9 13 11 14 17 18 17 17 13 18 15 12 14 20 21 18 13 11 23 11 15 15 20 25 30 31 33 30 31 30
12 9 6 5 5 5 3 5 6 9 10 6 8 6 5 11 11 14 19 17 16 18 16 19 11 12 19 19 24 22 21 18 22 15 17 19 16 27 32 24 37 31 34 32 28
11 10 8 6 8 11 9 10 13 5 9 3 10 11 16 12 15 11 9 18 16 14 15 20 17 20 17 24 20 23 20 26 25 14 14 14 9 21 27 30 28 30 39 35 30
10 7 6 7 8 9 6 7 8 4 4 14 7 4 12 17 6 19 13 18 18 10 16 21 18 16 24 19 20 21 16 10 14 17 17 28 7 20 26 23 27 38 40 33 35
9 6 6 6 10 12 10 6 4 4 4 9 11 11 12 10 10 14 14 17 16 15 18 21 17 17 18 18 21 15 18 9 13 10 8 25 12 17 30 26 36 31 31 33 32
8 6 4 5 2 9 9 7 6 3 7 9 8 8 11 12 11 21 12 16 17 11 16 20 21 21 18 20 23 17 15 8 3 7 14 28 20 5 29 21 6 33 31 34 35
7 4 1 4 4 14 10 7 2 7 5 6 7 8 9 16 13 20 12 16 15 19 20 19 19 24 19 22 20 20 19 11 4 6 8 20 11 15 23 21 24 16 25 37 28
7 2 5 5 7 11 6 10 4 4 5 14 14 8 11 11 8 12 14 15 15 18 20 11 25 18 24 21 22 19 19 26 20 24 8 9 15 16 26 28 18 22 13 27 32
4 3 7 9 5 6 2 9 7 2 8 12 10 6 6 6 7 11 14 11 8 7 3 14 10 15 13 23 17 19 10 9 13 2 2 8 12 11 21 30 30 19 22 13 22
6 3 8 8 4 6 10 9 6 1 4 5 9 3 8 2 3 19 9 4 2 4 3 9 6 6 18 13 14 19 18 8 9 8 4 5 5 12 22 21 24 29 26 27 24
7 8 9 5 10 11 10 1 2 2 3 6 8 12 11 3 14 14 6 10 6 10 4 5 9 9 14 15 12 16 15 12 12 12 6 9 7 15 20 12 11 17 24 28 28
9 4 5 4 6 9 7 6 5 4 1 4 5 5 7 6 6 1 2 4 3 9 3 7 7 14 14 12 10 12 23 18 15 15 18 6 11 17 15 13 15 14 15 19 28
4 8 5 1 2 3 4 2 3 5 1 3 1 2 4 1 5 4 3 3 5 2 8 5 4 7 12 3 7 10 16 16 13 11 13 12 19 24 27 24 17 17 12 14 17
4 5 3 3 7 5 3 7 1 4 5 2 1 4 6 5 4 6 10 7 3 6 3 2 20 10 11 10 7 6 11 21 14 11 6 9 10 20 20 18 15 14 11 9 8
6 6 7 3 3 4 2 4 3 4 5 5 1 3 5 8 3 13 10 4 3 6 3 1 11 29 17 5 5 9 8 17 13 1 2 12 15 12 13 11 16 12 10 11 11
7 7 6 8 7 5 6 7 1 3 4 1 4 5 7 5 5 7 2 7 6 6 4 0 5 8 9 10 13 7 7 6 5 2 4 16 11 14 14 16 15 17 15 13 12

GFSSW_700_spd_108.txt.gz
Wind_Speed
12 10 10 10 12 13 13 13 12 11 11 11 11 11 12 13 13 13 10 13 14 16 20 19 16 14 10 10 7 11 8 10 10 15 16 26 20 21 13 15 15 9 12 25 22
13 12 10 9 10 12 13 13 13 12 12 11 11 12 12 13 13 11 16 13 14 15 18 18 17 15 11 11 8 3 4 15 12 12 13 12 17 16 11 16 20 25 25 24 19
13 12 11 10 9 10 12 13 13 12 12 12 12 12 12 12 11 13 13 14 14 15 18 19 20 15 16 13 10 3 3 6 4 9 16 20 19 18 24 25 16 18 29 25 20
12 12 10 9 9 9 11 13 14 13 12 12 13 12 12 12 7 13 14 15 15 15 20 24 25 22 21 14 8 4 9 8 4 3 20 22 18 22 20 12 15 18 23 20 22
13 12 10 9 7 7 9 12 13 13 12 12 12 12 12 12 12 6 15 16 17 15 19 24 25 22 20 15 5 7 12 7 7 3 19 23 19 17 20 12 21 28 22 19 17
12 12 10 8 8 7 7 9 12 12 12 11 11 12 12 13 15 16 8 15 16 15 18 24 21 18 16 8 4 11 19 11 6 8 12 21 21 18 18 21 24 34 24 20 16
13 11 11 9 7 7 6 8 8 11 11 11 10 10 11 14 13 12 12 14 17 16 16 17 19 18 11 5 3 6 18 8 12 11 12 17 21 18 21 29 23 34 30 21 20
14 12 10 9 7 6 5 4 5 7 10 10 9 9 10 16 15 11 12 10 17 17 20 25 17 17 15 13 10 11 13 9 13 13 13 15 19 22 30 30 29 29 32 27 20
15 12 10 8 5 3 2 1 2 3 6 8 8 7 10 13 11 9 8 10 17 18 23 24 18 19 18 18 17 14 14 17 3 20 17 15 18 26 29 31 36 33 32 26 18
14 12 9 5 3 4 7 10 8 6 3 4 6 9 7 4 10 7 12 14 17 22 24 28 20 20 25 20 18 8 2 15 18 21 22 11 16 27 29 33 33 34 35 28 26
12 12 9 4 3 9 9 6 6 4 5 7 8 8 9 5 7 13 19 21 21 25 23 22 18 24 29 26 22 11 5 4 13 16 19 14 14 24 29 27 36 34 34 29 25
11 10 7 3 5 10 7 3 8 5 2 11 12 12 10 10 9 19 19 14 19 23 20 15 20 12 19 26 20 13 11 9 6 11 13 14 16 27 32 26 29 34 33 27 27
9 8 5 3 6 8 4 12 10 6 5 9 14 12 7 7 7 12 25 21 21 18 15 19 6 5 12 24 19 13 17 17 18 17 9 7 11 19 26 24 30 37 36 37 32
8 6 3 5 9 10 6 7 7 4 4 6 15 8 15 6 8 3 12 18 16 19 14 13 14 11 10 17 13 19 11 19 21 20 10 9 5 20 30 27 34 38 37 38 36
7 5 2 6 5 5 6 3 8 5 3 5 11 14 19 12 1 12 3 20 17 12 14 13 11 13 16 16 12 19 16 13 22 17 16 19 6 7 29 30 40 34 35 38 41
6 4 2 8 5 7 8 11 6 3 3 7 6 7 15 9 9 6 16 6 14 17 16 21 17 18 13 11 14 16 11 15 17 14 8 14 16 11 30 39 33 38 39 33 43
6 3 1 2 3 12 9 7 4 1 4 9 3 5 8 10 4 10 17 10 13 10 12 13 19 17 17 19 16 16 23 6 2 2 7 9 18 13 26 30 29 26 36 34 43
6 3 3 8 16 14 10 6 2 1 7 8 10 2 12 6 11 10 23 8 11 12 14 12 10 16 11 15 17 16 14 8 4 4 8 6 11 15 21 24 18 26 35 40 34
7 4 8 11 13 9 9 6 3 5 11 16 7 13 11 10 8 24 17 9 9 11 19 11 11 16 16 14 15 19 9 9 12 10 5 10 6 8 28 33 22 22 33 36 39
5 5 8 13 10 7 5 8 5 8 10 10 12 11 7 6 9 16 8 5 9 1 4 8 13 12 20 14 20 19 11 6 7 4 4 7 15 12 22 24 24 26 14 16 8
9 17 13 10 8 4 2 5 4 5 5 9 9 7 11 6 3 6 6 7 2 5 5 6 10 10 13 6 12 12 13 6 3 3 5 4 2 12 27 29 26 23 18 14 13
10 16 12 8 3 4 4 4 3 5 5 3 4 8 10 7 7 4 10 13 7 9 7 1 6 9 6 11 2 5 7 12 2 2 3 8 4 8 18 26 21 21 19 19 17
13 12 9 9 9 10 9 6 2 2 5 9 7 3 9 4 1 5 7 3 11 10 3 1 3 7 3 2 10 2 10 13 8 7 2 7 8 14 12 8 7 6 16 23 22
9 9 8 5 5 5 8 10 4 2 6 3 5 5 4 9 2 3 6 3 8 8 5 2 5 6 6 9 12 14 4 8 8 3 9 8 20 17 16 8 15 12 11 12 16
11 12 10 9 8 8 10 8 10 8 7 4 3 1 2 2 13 6 3 9 4 5 2 9 5 2 5 6 18 8 9 10 13 6 6 15 9 20 20 17 13 13 12 12 10
8 12 12 10 9 5 6 7 5 5 11 7 5 2 4 4 2 9 6 4 2 4 7 4 12 11 5 9 17 10 8 13 10 10 13 20 19 15 16 13 17 16 16 14 14
8 7 7 10 8 6 10 7 5 4 3 3 0 1 2 9 8 6 5 6 5 7 6 4 8 19 16 10 16 3 15 8 8 8 14 20 15 22 18 16 17 20 16 16 16

GFSSW_700_spd_111.txt.gz
Wind_Speed
11 11 11 12 13 14 16 15 13 12 12 12 11 13 12 12 13 13 9 13 14 16 19 19 16 13 11 7 7 13 9 12 15 10 19 18 18 17 13 15 18 8 20 24 26
13 11 11 11 12 13 14 16 14 13 13 13 12 12 13 12 12 11 15 14 13 14 17 17 17 13 12 11 8 13 14 21 9 8 9 17 19 18 10 13 16 25 27 26 18
11 12 11 11 11 11 13 14 15 14 13 13 13 12 13 13 11 13 13 14 13 16 16 20 21 15 13 12 12 9 10 4 3 12 13 14 23 18 13 13 9 21 29 25 22
11 10 11 10 10 11 11 12 14 15 14 13 13 13 12 13 9 13 14 15 14 17 17 23 25 21 15 10 9 6 4 1 3 5 18 17 22 21 20 8 12 14 22 24 19
13 12 9 9 8 9 11 12 12 14 14 13 12 13 12 13 13 12 15 16 16 15 18 23 24 22 17 10 4 2 4 5 8 5 15 21 19 25 21 20 20 21 21 21 17
13 13 13 9 7 8 9 11 12 12 14 13 12 12 13 14 17 12 17 16 16 15 17 23 22 21 17 11 3 5 9 7 4 3 13 16 14 20 21 22 22 22 20 18 15
14 12 10 9 8 6 6 8 10 11 12 13 12 12 13 15 16 17 10 15 17 16 13 20 22 20 16 9 3 7 5 11 9 6 9 13 12 14 21 28 22 23 19 18 15
14 14 11 9 8 6 4 5 7 8 9 11 12 10 12 17 16 12 18 12 18 19 20 24 24 20 14 10 4 6 12 9 10 10 6 12 16 22 20 28 29 25 21 19 15
15 13 11 8 5 3 2 2 4 5 7 9 11 9 11 13 10 12 13 15 21 21 29 29 26 21 17 14 8 13 7 11 9 14 11 15 12 22 29 32 40 30 25 19 18
13 13 10 6 1 2 5 5 5 5 7 9 9 9 9 6 11 12 12 19 24 27 31 28 23 20 20 17 10 12 10 14 18 11 15 14 11 22 29 32 30 36 30 24 20
12 11 9 3 3 6 5 6 3 2 6 11 13 12 11 9 13 13 18 25 27 32 33 26 26 28 22 15 14 12 2 2 13 19 20 18 13 18 27 31 40 35 33 28 22
11 10 8 1 7 6 5 8 5 6 4 9 14 15 12 11 16 25 25 27 30 30 29 29 27 28 20 15 16 13 6 1 5 7 13 16 15 16 26 25 37 41 36 28 25
9 8 6 1 8 7 12 5 0 1 3 9 13 12 9 5 14 23 22 25 28 28 25 27 16 21 16 15 20 16 12 8 9 8 11 7 12 13 24 24 29 31 29 32 27
7 6 4 4 9 9 9 5 2 2 1 10 14 12 11 10 10 13 17 14 19 25 17 18 16 12 9 10 15 17 14 10 15 17 11 6 2 18 23 29 29 32 34 31 29
6 4 2 6 7 7 6 6 5 3 3 6 16 7 12 10 12 12 16 16 16 18 16 9 9 7 9 12 12 16 11 14 20 23 14 11 3 14 27 34 35 44 34 30 31
5 4 3 7 4 9 7 10 3 2 2 5 7 12 12 9 12 5 8 12 11 12 17 14 13 12 13 12 9 11 10 8 12 21 5 16 15 7 25 35 30 36 40 35 34
5 4 4 5 5 8 7 4 4 1 3 8 4 8 12 8 8 4 13 14 10 10 18 15 15 13 15 14 10 11 16 5 3 2 6 11 16 10 6 18 29 39 23 31 27
8 4 4 9 15 12 6 3 2 8 9 11 5 6 11 8 9 12 10 15 13 10 8 5 4 13 15 13 6 11 21 9 6 5 4 8 7 6 9 12 29 32 25 21 30
9 4 8 16 14 8 6 4 3 5 9 11 5 6 11 9 8 14 18 16 2 3 9 4 6 7 9 9 10 11 28 19 7 4 4 8 5 6 13 20 24 25 40 24 31
6 7 12 15 12 6 8 8 8 7 12 10 8 8 7 7 9 12 16 9 11 7 4 5 11 10 7 12 13 16 16 11 9 5 3 3 5 7 21 25 31 22 26 36 33
8 15 16 13 7 6 7 7 6 4 5 7 6 8 8 8 7 7 11 10 13 9 4 1 8 8 4 5 6 11 18 9 11 4 6 3 5 12 25 30 30 20 16 22 24
17 16 10 9 5 4 7 8 6 5 3 4 6 4 4 1 5 1 5 3 8 10 6 2 6 8 10 4 5 5 7 15 14 5 6 5 3 11 20 34 29 27 22 18 14
20 15 11 8 4 1 3 2 2 1 2 6 5 3 4 7 3 1 3 1 9 8 5 2 5 5 6 6 5 8 8 3 5 9 9 7 4 8 13 18 21 19 19 23 21
17 12 9 11 7 10 7 9 5 1 3 5 4 5 5 1 7 5 6 4 3 7 10 6 5 6 9 9 11 5 5 5 7 6 15 11 16 22 19 18 19 16 10 10 18
11 12 12 10 10 7 11 11 8 5 2 4 3 5 3 5 3 5 2 4 3 3 7 8 8 4 12 10 14 11 6 6 10 10 16 21 18 20 22 18 10 16 13 12 12
12 15 12 11 11 10 12 14 5 1 3 2 0 5 3 6 6 6 5 8 5 7 7 3 8 9 14 4 9 16 9 1 13 17 13 17 19 19 22 20 16 12 12 13 13
10 10 10 7 8 4 10 10 3 1 5 1 3 2 1 4 8 10 8 8 5 6 9 5 5 13 5 11 6 5 16 10 2 17 17 22 17 24 25 22 20 19 15 16 14

GFSSW_700_spd_117.txt.gz
Wind_Speed
14 13 13 12 11 11 9 9 12 15 14 13 13 13 13 12 12 11 11 15 14 15 15 13 12 14 9 7 4 13 13 8 18 19 20 19 17 12 12 12 14 17 14 16 19
13 13 12 11 11 11 11 9 10 13 15 14 13 13 14 13 12 11 15 15 15 15 15 13 12 14 7 5 4 9 14 19 15 16 16 19 14 10 12 14 15 17 18 19 17
15 13 13 12 11 11 11 10 9 11 14 15 14 13 13 14 13 14 14 15 15 17 18 17 16 14 9 9 10 16 20 15 14 9 17 14 13 12 10 14 8 11 21 19 17
15 15 13 13 12 10 10 9 9 9 13 15 15 14 13 14 12 16 16 17 17 19 21 21 19 17 14 12 15 16 14 8 7 11 17 12 19 11 17 8 10 17 17 18 17
16 15 14 13 12 11 9 9 9 9 10 15 15 14 13 14 16 17 18 19 19 18 18 20 20 18 16 15 14 12 8 6 5 5 12 15 22 13 16 16 19 20 21 20 20
15 14 14 12 11 10 9 8 9 8 9 13 15 14 15 13 15 13 19 20 19 17 18 22 20 17 15 16 12 10 6 5 5 7 17 20 23 18 15 26 25 25 23 21 19
14 14 13 11 10 8 8 8 8 7 9 11 15 13 13 16 16 13 18 20 19 18 16 20 25 19 16 16 11 7 6 6 4 6 23 24 18 14 21 28 28 21 20 21 22
14 14 13 12 9 8 8 7 7 6 8 10 14 12 13 17 18 15 16 21 24 22 21 23 26 20 21 15 12 8 7 9 8 8 7 13 14 26 26 29 31 25 23 23 20
13 12 12 10 7 5 4 4 3 5 8 10 12 12 13 17 18 20 16 18 23 25 24 27 27 23 22 16 12 12 9 8 10 9 6 12 9 21 28 26 31 30 23 24 21
11 11 10 8 5 2 1 1 1 3 6 9 11 11 11 17 16 18 21 17 21 25 25 29 27 26 22 20 13 13 9 9 7 11 8 11 7 15 28 29 32 27 28 25 21
10 10 9 6 2 2 1 1 2 1 5 8 12 12 14 19 19 16 15 21 21 23 27 31 28 28 23 18 12 14 9 7 9 8 11 8 8 7 18 24 32 22 31 29 21
9 8 7 5 2 4 3 3 3 3 2 7 11 12 15 19 21 17 17 22 22 23 24 28 24 25 17 15 15 11 8 7 7 12 11 10 8 10 11 19 26 28 29 26 25
8 7 5 3 4 6 5 4 4 7 4 7 13 12 11 11 17 18 17 19 24 24 25 21 16 20 16 18 17 18 10 7 6 9 7 11 8 12 14 17 27 30 30 32 26
6 6 5 2 7 8 4 4 5 9 5 9 12 9 7 10 14 14 18 18 23 23 19 15 7 18 15 15 18 16 14 7 5 7 5 11 6 14 9 20 24 27 30 31 28
5 5 4 2 5 7 3 2 3 5 3 7 10 10 8 8 13 14 16 13 16 24 18 10 18 15 18 20 18 13 18 12 8 8 5 13 4 8 20 24 28 25 34 38 31
5 4 4 4 6 5 3 1 3 1 4 5 7 8 13 5 18 18 15 13 14 16 15 12 12 11 11 12 14 15 15 11 10 7 5 8 11 7 19 21 26 29 31 36 29
5 2 3 3 7 5 2 2 3 2 7 8 10 12 14 15 12 16 17 13 7 13 17 18 12 11 9 11 12 15 16 7 4 5 4 8 10 10 6 6 14 26 28 39 39
3 3 2 4 5 8 3 1 1 8 9 9 11 13 12 12 8 12 13 14 12 7 13 13 11 19 12 15 14 20 17 14 13 6 8 7 9 10 10 18 14 19 28 33 39
2 4 2 4 13 6 3 2 3 5 8 12 11 15 13 11 5 8 11 13 11 6 3 8 7 10 11 15 16 18 20 13 5 7 7 6 10 12 11 10 15 17 28 31 33
3 7 8 15 11 7 9 9 9 10 9 8 6 8 10 9 8 9 11 12 9 4 12 6 4 9 7 11 17 17 15 15 8 8 7 4 6 10 10 11 14 21 22 29 29
8 11 19 12 10 11 12 13 12 10 9 10 12 10 8 8 7 10 12 13 11 5 13 8 5 5 7 6 11 14 11 12 14 10 10 4 6 9 14 10 17 22 20 30 21
11 15 20 11 12 15 14 12 10 10 8 11 9 7 7 7 6 7 13 11 12 10 8 7 4 3 2 4 8 14 15 16 13 9 11 9 11 8 12 9 16 22 20 32 27
13 19 17 11 8 10 11 12 10 7 5 5 5 3 5 5 4 9 12 13 14 10 8 7 5 3 3 6 6 8 13 16 18 14 14 14 9 11 9 13 16 21 24 22 28
16 13 10 7 6 6 7 8 9 8 3 4 5 5 3 2 6 6 7 8 8 12 11 9 10 9 9 6 8 7 7 11 16 13 13 17 15 12 4 12 16 23 25 23 25
11 11 7 6 3 7 11 7 2 6 4 3 4 3 3 3 2 4 4 5 4 4 6 10 9 8 9 10 9 9 10 8 15 14 15 15 19 17 14 8 15 18 26 27 26
11 7 6 6 6 10 9 8 4 8 9 6 2 2 1 2 2 4 2 4 5 4 5 6 6 12 12 11 8 3 9 9 9 14 14 15 16 14 14 18 20 21 24 25 26
13 8 9 9 8 11 10 10 5 3 2 3 6 5 3 1 3 6 6 5 6 6 6 6 4 8 6 9 5 6 2 5 10 13 15 13 18 19 19 22 25 27 26 25 23

GFSSW_700_spd_123.txt.gz
Wind_Speed
12 12 11 9 7 6 7 9 10 13 15 15 13 13 14 13 14 14 16 19 15 15 14 11 8 7 3 5 9 10 11 11 15 16 14 14 14 10 9 10 9 6 10 20 22
11 11 11 11 9 7 7 8 9 11 14 16 15 14 14 14 14 15 18 18 17 17 17 14 11 8 4 3 3 8 5 17 13 13 14 12 9 8 9 7 8 16 17 14 20
11 11 11 10 10 8 6 7 9 11 13 16 17 15 14 13 12 15 17 18 17 18 20 18 10 9 5 4 6 3 10 19 14 14 14 13 11 8 9 8 12 15 11 16 20
12 11 11 10 9 9 7 7 9 11 12 15 17 17 15 14 6 20 17 17 18 20 24 22 13 11 5 4 6 2 3 18 12 13 9 12 12 13 9 12 13 15 14 19 19
11 11 11 10 9 8 7 6 7 10 11 14 16 18 16 15 14 10 18 18 19 21 24 22 14 11 6 5 8 10 12 9 6 12 8 12 19 11 12 13 15 19 19 18 17
11 11 10 11 10 8 7 6 7 9 11 13 15 17 17 13 24 15 18 19 20 21 23 20 13 10 8 9 9 9 8 7 10 8 15 12 16 11 14 15 20 20 18 17 16
10 10 10 10 10 8 7 6 6 7 9 12 14 16 17 15 19 18 18 19 19 20 19 18 12 12 5 10 9 10 13 8 7 11 12 16 12 19 17 16 19 18 16 16 15
10 9 9 9 9 7 6 5 4 5 7 9 11 14 11 22 18 18 18 21 19 17 14 15 19 12 11 10 11 12 12 11 12 11 11 12 16 20 23 21 19 17 17 16 16
8 8 7 7 7 5 5 4 2 1 4 8 10 12 9 15 16 17 16 19 21 21 19 24 24 12 12 14 16 16 16 16 14 8 7 14 12 15 23 21 21 19 18 17 16
7 6 6 6 5 4 4 5 5 4 2 5 8 10 11 13 16 17 15 20 19 18 18 20 17 15 17 18 23 17 19 17 14 17 14 17 8 18 25 24 28 29 21 19 16
6 6 5 5 3 2 3 7 11 10 3 9 5 2 5 14 15 17 15 19 16 16 16 18 20 24 18 20 9 12 10 17 13 17 16 14 6 17 28 34 29 36 23 21 18
5 5 5 4 2 2 2 4 3 4 2 5 9 11 10 12 13 15 16 15 18 18 18 16 24 21 17 17 14 9 9 14 16 14 12 13 8 14 27 23 17 25 29 21 19
3 4 4 3 2 3 3 3 4 3 1 5 6 8 11 14 12 15 19 12 16 18 21 19 17 18 17 14 14 15 16 12 7 14 8 16 10 14 24 31 15 29 28 28 22
2 2 3 2 1 4 4 6 5 8 5 3 6 8 10 11 11 15 18 12 14 19 19 18 11 18 18 16 15 14 12 6 23 16 12 15 8 17 24 28 31 23 30 27 36
2 2 1 1 2 5 6 7 10 2 1 8 8 7 10 17 19 15 15 11 16 17 18 17 18 16 18 19 15 7 9 10 3 12 4 11 10 9 23 29 31 30 31 35 22
3 2 0 1 4 5 11 9 7 3 4 7 5 8 13 11 9 15 16 12 13 14 17 11 15 15 16 17 15 10 10 10 8 10 16 19 16 21 28 28 28 29 30 34 29
3 3 1 3 5 9 11 7 5 5 8 7 10 11 13 13 11 15 16 14 15 18 19 10 13 15 15 17 15 15 14 13 9 8 13 6 8 9 13 17 23 23 31 28 31
4 3 3 5 12 16 10 4 10 5 3 5 10 12 11 13 11 15 14 16 13 16 21 15 18 21 15 18 14 20 21 19 14 12 17 16 7 13 13 16 18 22 21 29 34
5 5 5 13 14 15 1 14 8 5 5 8 8 12 11 6 9 14 14 14 13 14 11 20 16 20 17 18 15 15 25 24 25 21 17 7 6 8 15 14 12 16 23 28 35
7 6 6 14 14 10 2 3 6 4 4 4 6 6 10 13 11 13 14 14 12 12 9 6 12 13 16 15 18 19 11 22 22 16 17 15 18 11 14 14 13 17 22 24 34
13 8 15 15 14 3 0 10 6 4 3 2 4 8 2 9 6 11 15 10 7 9 11 6 16 11 18 19 18 19 18 16 19 23 16 12 6 14 18 15 12 13 19 25 25
12 6 16 17 1 1 8 5 6 4 3 1 3 2 3 6 8 10 9 10 10 5 10 12 11 19 16 17 18 13 22 21 19 16 23 29 5 9 3 6 10 11 15 24 24
8 9 19 12 3 6 7 7 6 3 3 3 3 2 1 4 4 1 5 3 8 5 1 8 12 7 6 14 14 16 16 21 24 22 24 18 6 13 10 7 5 9 13 23 22
12 11 11 1 5 9 8 4 3 2 3 3 2 2 3 4 5 5 4 4 5 6 8 5 13 16 10 6 10 20 22 18 19 20 19 21 15 6 10 11 4 9 16 23 29
9 8 9 7 7 4 3 4 5 6 4 4 3 4 2 3 5 6 5 4 6 10 6 8 13 11 3 6 10 6 12 19 19 22 22 19 9 5 19 17 10 5 23 24 29
8 8 10 6 6 7 6 4 5 7 4 2 4 3 2 3 0 1 5 6 7 7 8 9 13 13 14 12 11 11 11 10 13 18 23 24 9 17 13 17 9 7 7 20 22
13 11 9 6 8 10 7 5 4 3 3 2 0 1 4 4 3 3 5 5 6 8 7 8 11 9 17 15 12 17 18 14 16 12 16 13 1 10 4 5 7 6 7 18 22